Lid_Strength_Index
4 4 4 4 4 4 5 8 13 4 2 10 10 11 9 7 7 6 8 8 9 13 12 12 12 12 12 11 13 16 14 15 17 18 17 16 15 16 16 16 18 18 18 15
4 4 4 4 3 3 6 10 10 5 4 13 11 9 9 8 9 8 9 9 8 8 12 13 11 12 11 11 13 14 14 16 18 18 18 17 18 17 16 17 16 18 17 15
4 4 3 3 3 3 5 9 14 9 8 7 11 12 12 11 7 8 7 9 8 10 12 11 13 12 12 11 13 13 11 15 16 17 17 16 19 18 17 16 17 16 17 14
4 3 3 2 2 2 4 8 11 9 13 12 11 12 11 12 12 9 8 10 10 11 14 13 13 11 11 11 11 13 14 17 15 15 17 17 17 17 17 19 17 17 15 17
3 3 2 2 2 2 5 9 10 8 10 10 11 11 13 13 13 12 13 11 9 10 12 12 13 11 11 11 12 14 14 17 17 17 16 18 19 17 17 17 17 17 17 18
3 3 3 2 2 2 4 4 3 6 9 10 11 11 12 13 12 11 10 11 13 12 11 10 8 7 8 10 12 14 14 16 17 18 16 16 18 16 16 16 16 17 19 16
3 2 2 1 -0 -1 1 1 3 6 10 8 9 9 10 11 12 13 11 11 12 11 9 10 8 9 10 10 10 11 14 14 14 17 17 20 14 13 12 15 15 15 15 14
2 2 0 -1 -2 -2 1 0 3 5 10 7 8 7 9 9 9 11 11 10 10 9 11 14 12 13 13 12 12 12 11 13 17 17 18 15 14 14 16 16 15 13 14 14
2 1 -1 -2 -2 -2 0 1 0 4 8 9 6 7 7 9 9 10 10 8 7 9 12 14 15 16 14 16 16 13 13 13 15 18 18 20 14 15 15 14 17 12 12 13
-0 -1 -2 -2 -2 -2 -0 1 -0 3 7 5 5 8 8 6 7 9 9 9 9 8 13 15 15 15 12 16 17 18 16 15 17 17 17 15 12 15 15 17 14 15 13 13
-1 -2 -2 -2 -2 -2 -0 1 -1 3 5 5 4 4 6 6 6 9 7 10 9 10 13 13 13 14 13 14 13 16 16 16 17 15 17 19 14 16 15 13 14 14 14 13
-2 -2 -2 -2 -1 -2 -1 2 -0 -0 4 4 2 2 1 2 3 5 6 8 8 8 11 13 14 13 13 13 16 13 15 12 14 13 14 12 13 13 13 13 13 13 13 13
-2 -2 -2 -2 -2 -2 -1 1 0 2 4 5 4 5 2 0 1 1 7 5 6 8 7 11 13 15 12 14 13 13 13 11 13 14 11 12 12 12 12 13 13 12 12 12
-2 -2 -2 -2 -2 -1 -1 1 0 2 4 8 6 1 3 0 1 1 2 3 4 6 7 10 12 14 11 13 13 12 11 13 13 14 12 11 10 11 11 11 12 13 12 13
-2 -2 -2 -2 -1 -1 -1 -0 -0 -0 4 8 7 3 2 1 1 2 2 3 5 7 9 11 13 11 11 11 13 14 12 13 13 13 9 8 9 9 10 11 12 12 12 12
-1 -1 -1 -1 -1 -1 1 4 0 -0 1 6 10 3 4 3 3 3 4 4 5 5 8 10 10 9 11 14 15 9 11 10 9 8 8 8 8 9 10 10 10 11 12 11
-1 -1 -1 -1 -1 0 3 4 1 -1 0 6 9 8 5 3 4 4 4 4 5 6 7 10 10 10 10 12 16 12 11 10 9 9 10 10 11 9 9 11 11 13 13 13
-1 -1 -1 -1 -1 -0 2 0 -1 -1 3 4 9 9 7 4 7 7 4 6 6 6 7 8 10 9 10 14 11 10 10 10 10 10 10 8 11 12 12 13 15 15 14 13
-1 -1 -1 0 1 4 2 -1 -1 1 3 8 8 10 11 4 6 6 6 6 9 6 9 9 9 11 13 11 11 10 9 10 10 10 10 13 13 12 12 13 16 15 13 14
-1 1 3 6 4 1 0 2 5 5 5 6 9 6 9 6 7 8 8 7 9 11 9 7 11 12 10 9 9 8 9 9 10 12 12 15 13 12 11 13 13 13 14 15
3 5 6 4 2 3 5 8 8 8 9 7 7 8 9 5 9 9 7 9 8 12 10 11 12 12 10 8 8 8 8 8 8 9 11 11 11 12 14 14 15 17 19 20
3 3 4 3 5 7 10 11 9 10 11 9 9 9 8 7 5 8 8 10 9 13 9 11 13 10 9 11 9 8 11 12 13 14 13 16 15 19 20 21 22 23 24 24
3 5 8 8 9 12 13 14 11 12 9 8 8 10 8 7 6 8 8 11 13 11 14 13 11 12 15 18 18 16 18 17 15 18 19 20 21 24 24 24 26 25 24 24
7 10 15 12 13 11 10 10 10 8 8 8 9 10 9 7 9 8 12 11 14 16 15 14 12 18 20 20 20 21 20 21 20 21 22 23 24 24 26 26 26 26 25 24
9 11 14 14 11 11 10 10 11 9 8 9 10 11 8 9 10 10 12 16 18 14 13 13 17 20 21 21 22 22 22 23 23 22 23 24 25 24 25 25 24 24 24 23
11 12 13 14 14 12 11 11 11 9 9 8 9 9 11 11 11 15 16 16 16 15 17 17 18 20 22 23 23 24 24 23 23 24 23 24 25 24 24 24 23 23 24 24
13 12 15 13 13 12 10 10 10 9 11 11 11 12 12 12 14 15 13 15 17 18 18 19 21 23 23 25 24 25 24 24 23 24 24 24 24 24 23 24 23 23 24 24